Regional Weather Roundup
Issued by NWS Goodland, KS

Home | Current Version | Previous Version | Graphics & Text | Print | Product List | Glossary On
Versions: 1 2 3 4 5 6 7 8 9 10 11 12 13 14 15 16 17 18 19 20 21 22 23 24 25 26 27 28 29 30 31 32 33 34 35 36 37 38 39 40 41 42 43 44 45 46 47 48 49 50
000
ASUS43 KGLD 281759
RWRGLD

GOODLAND FORECAST AREA HOURLY WEATHER ROUNDUP
NATIONAL WEATHER SERVICE GOODLAND KS
1200 PM MDT FRI APR 28 2017

...OFFICIAL OBSERVATIONS...

CITY           SKY/WX    TMP DP  RH WIND       PRES   REMARKS
GOODLAND KS    PTSUNNY   51  40  65 N15G24    29.71S
HILL CITY KS   CLOUDY    58  45  62 NW9       29.70R
IMPERIAL NEB   CLOUDY    38  34  85 NE21G26   29.79R
MCCOOK NEB     CLOUDY    40  38  93 NE22      29.77S
AKRON CO       CLOUDY    47  36  65 NE18      29.71R
BURLINGTON CO  NOT AVBL
LIMON CO       CLOUDY    51  27  39 E12G20    29.68R
$$

...UNOFFICIAL OBSERVATIONS...

CITY           SKY/WX    TMP DP  RH WIND       PRES   REMARKS
LENORA KS        N/A     48  32  54 MISG        N/A
NORTON KS      CLOUDY    43  37  81 N21G28    29.72R
SHARON SPRINGS   N/A     56  41  58 N9G16       N/A
TRENTON NEB      N/A     38  32  79 NE10        N/A
KIT CARSON CO    N/A     54  36  50 MISG        N/A
YUMA CO        CLOUDY    43  36  75 N13G18    29.73R
$$




USA.gov is the U.S. government's official web portal to all federal, state and local government web resources and services.